Tracking 32420 objects as of 8-Dec-2025
HD Live streaming from Space Station
objects crossing your sky now

STARLINK-31582

Track STARLINK-31582 now!
10-day predictions
STARLINK-31582 is classified as:


NORAD ID: 59545
Int'l Code: 2024-074M
Perigee: 489.1 km
Apogee: 491.3 km
Inclination: 43.0 °
Period: 94.3 minutes
Semi major axis: 6861 km
RCS: Unknown
Launch date: April 18, 2024
Source: United States (US)
Launch site: AIR FORCE EASTERN TEST RANGE (AFETR)
Your satellite tracking list
Your tracking list is empty




NASA's NSSDC Master Catalog

Two Line Element Set (TLE):
1 59545U 24074M   25342.49508070  .00004559  00000-0  17516-3 0  9990
2 59545  43.0055 138.8608 0001612 294.7181  65.3503 15.27571174 92062
Source of the keplerian elements: AFSPC